PIMOHWEATHER Station Historical Data
Daily Summary for April 30, 2020 Units:  Metric    English   Both
Daily Weekly Monthly Yearly
  High: Low: Average:
Temperature: 36.0 °C 27.0 °C 30.9 °C
Dew Point: 27.0 °C 23.0 °C 24.5 °C
Humidity: 84% 58% 70%
Wind Speed: 24km/h 0km/h 7km/h
Wind Gust: 28km/h - -
Wind- - SE
Pressure: 1011.9 hPa 1007.5 hPa -
Precipitation: 3.30 mm    
 
 
Tabular Data for April 30, 2020
Time Temperature Dew Point Pressure Wind Wind Speed Wind Gust Humidity Rainfall Rate (Hourly) solar
00:04 30.0 °C 24.0 °C 1010.8 hPa East 6 km/h 8 km/h 71% 0.00 mm 0.00 W/m2
00:09 30.0 °C 24.0 °C 1010.8 hPa East 10 km/h 12 km/h 71% 0.00 mm 0.00 W/m2
00:14 30.0 °C 24.0 °C 1010.8 hPa ESE 8 km/h 12 km/h 72% 0.00 mm 0.00 W/m2
00:19 30.0 °C 24.0 °C 1010.5 hPa SSE 6 km/h 12 km/h 72% 0.00 mm 0.00 W/m2
00:24 30.0 °C 24.0 °C 1010.5 hPa ESE 5 km/h 8 km/h 72% 0.00 mm 0.00 W/m2
00:29 30.0 °C 24.0 °C 1010.5 hPa ESE 2 km/h 4 km/h 72% 0.00 mm 0.00 W/m2
00:34 30.0 °C 24.0 °C 1010.5 hPa East 10 km/h 12 km/h 72% 0.00 mm 0.00 W/m2
00:39 30.0 °C 24.0 °C 1010.5 hPa SE 6 km/h 8 km/h 72% 0.00 mm 0.00 W/m2
00:44 30.0 °C 24.0 °C 1010.5 hPa East 5 km/h 8 km/h 72% 0.00 mm 0.00 W/m2
00:49 30.0 °C 24.0 °C 1010.5 hPa SE 3 km/h 8 km/h 72% 0.00 mm 0.00 W/m2
00:54 29.0 °C 24.0 °C 1010.5 hPa ESE 5 km/h 8 km/h 72% 0.00 mm 0.00 W/m2
00:59 29.0 °C 24.0 °C 1010.5 hPa East 5 km/h 8 km/h 72% 0.00 mm 0.00 W/m2
01:04 29.0 °C 24.0 °C 1010.5 hPa ENE 5 km/h 8 km/h 73% 0.00 mm 0.00 W/m2
01:09 29.0 °C 24.0 °C 1010.5 hPa SE 8 km/h 12 km/h 73% 0.00 mm 0.00 W/m2
01:14 29.0 °C 24.0 °C 1010.5 hPa SE 1 km/h 4 km/h 73% 0.00 mm 0.00 W/m2
01:19 29.0 °C 24.0 °C 1010.5 hPa ESE 7 km/h 8 km/h 73% 0.00 mm 0.00 W/m2
01:24 29.0 °C 24.0 °C 1010.5 hPa East 5 km/h 8 km/h 73% 0.00 mm 0.00 W/m2
01:29 29.0 °C 24.0 °C 1010.5 hPa NE 4 km/h 8 km/h 74% 0.00 mm 0.00 W/m2
01:34 29.0 °C 24.0 °C 1010.2 hPa East 1 km/h 4 km/h 74% 0.00 mm 0.00 W/m2
01:39 29.0 °C 24.0 °C 1010.2 hPa NE 1 km/h 4 km/h 74% 0.00 mm 0.00 W/m2
01:44 29.0 °C 24.0 °C 1010.2 hPa NE 1 km/h 4 km/h 74% 0.00 mm 0.00 W/m2
01:49 29.0 °C 24.0 °C 1010.2 hPa Calm   4 km/h 74% 0.00 mm 0.00 W/m2
01:54 29.0 °C 24.0 °C 1010.2 hPa East 1 km/h 4 km/h 74% 0.00 mm 0.00 W/m2
01:59 29.0 °C 24.0 °C 1010.2 hPa East 3 km/h 4 km/h 74% 0.00 mm 0.00 W/m2
02:04 29.0 °C 24.0 °C 1009.8 hPa Calm     74% 0.00 mm 0.00 W/m2
02:09 29.0 °C 24.0 °C 1009.8 hPa Calm   4 km/h 74% 0.00 mm 0.00 W/m2
02:14 29.0 °C 24.0 °C 1009.8 hPa ESE 1 km/h 4 km/h 74% 0.00 mm 0.00 W/m2
02:19 29.0 °C 24.0 °C 1009.8 hPa ESE 1 km/h 4 km/h 75% 0.00 mm 0.00 W/m2
02:24 29.0 °C 24.0 °C 1009.8 hPa Calm     75% 0.00 mm 0.00 W/m2
02:29 29.0 °C 24.0 °C 1009.8 hPa Calm     75% 0.00 mm 0.00 W/m2
02:34 29.0 °C 24.0 °C 1009.8 hPa SE 1 km/h 4 km/h 75% 0.00 mm 0.00 W/m2
02:39 29.0 °C 24.0 °C 1009.8 hPa ENE 2 km/h 4 km/h 75% 0.00 mm 0.00 W/m2
02:44 29.0 °C 24.0 °C 1009.8 hPa East 1 km/h 4 km/h 75% 0.00 mm 0.00 W/m2
02:49 29.0 °C 24.0 °C 1009.8 hPa NNE 5 km/h 8 km/h 75% 0.00 mm 0.00 W/m2
02:54 29.0 °C 24.0 °C 1009.8 hPa Calm     75% 0.00 mm 0.00 W/m2
02:59 29.0 °C 24.0 °C 1009.8 hPa Calm     76% 0.00 mm 0.00 W/m2
03:04 29.0 °C 24.0 °C 1009.8 hPa NNE 6 km/h 8 km/h 76% 0.00 mm 0.00 W/m2
03:09 29.0 °C 24.0 °C 1009.8 hPa North 5 km/h 8 km/h 77% 0.00 mm 0.00 W/m2
03:14 28.0 °C 24.0 °C 1009.8 hPa NNE 1 km/h 4 km/h 77% 0.00 mm 0.00 W/m2
03:19 28.0 °C 24.0 °C 1009.8 hPa North 4 km/h 4 km/h 77% 0.00 mm 0.00 W/m2
03:24 28.0 °C 24.0 °C 1009.8 hPa North 6 km/h 8 km/h 77% 0.00 mm 0.00 W/m2
03:29 28.0 °C 24.0 °C 1009.8 hPa NNW 5 km/h 8 km/h 78% 0.00 mm 0.00 W/m2
03:34 28.0 °C 24.0 °C 1009.8 hPa Calm     78% 0.00 mm 0.00 W/m2
03:39 28.0 °C 24.0 °C 1009.8 hPa NNW 3 km/h 4 km/h 78% 0.00 mm 0.00 W/m2
03:44 28.0 °C 24.0 °C 1009.8 hPa NNE 4 km/h 4 km/h 78% 0.00 mm 0.00 W/m2
03:49 28.0 °C 24.0 °C 1009.8 hPa NNE 2 km/h 4 km/h 78% 0.00 mm 0.00 W/m2
03:54 28.0 °C 24.0 °C 1009.8 hPa Calm     78% 0.00 mm 0.00 W/m2
03:59 28.0 °C 24.0 °C 1009.8 hPa Calm     78% 0.00 mm 0.00 W/m2
04:04 28.0 °C 24.0 °C 1009.8 hPa Calm     78% 0.00 mm 0.00 W/m2
04:09 28.0 °C 24.0 °C 1009.8 hPa Calm     78% 0.00 mm 0.00 W/m2
04:14 28.0 °C 24.0 °C 1010.2 hPa North 3 km/h 4 km/h 78% 0.00 mm 0.00 W/m2
04:19 28.0 °C 24.0 °C 1010.2 hPa Calm     78% 0.00 mm 0.00 W/m2
04:24 28.0 °C 24.0 °C 1009.8 hPa North 5 km/h 8 km/h 78% 0.00 mm 0.00 W/m2
04:29 28.0 °C 24.0 °C 1010.2 hPa NNW 6 km/h 8 km/h 79% 0.00 mm 0.00 W/m2
04:34 28.0 °C 24.0 °C 1010.2 hPa NNW 5 km/h 8 km/h 79% 0.00 mm 0.00 W/m2
04:39 28.0 °C 24.0 °C 1010.2 hPa Calm     79% 0.00 mm 0.00 W/m2
04:44 28.0 °C 24.0 °C 1010.2 hPa Calm     79% 0.00 mm 0.00 W/m2
04:49 28.0 °C 24.0 °C 1010.2 hPa Calm     79% 0.00 mm 0.00 W/m2
04:54 28.0 °C 24.0 °C 1010.2 hPa NNW 5 km/h 8 km/h 79% 0.00 mm 0.00 W/m2
04:59 28.0 °C 24.0 °C 1010.2 hPa North 4 km/h 4 km/h 79% 0.00 mm 0.00 W/m2
05:04 28.0 °C 24.0 °C 1010.5 hPa North 5 km/h 8 km/h 79% 0.00 mm 0.00 W/m2
05:09 28.0 °C 24.0 °C 1010.2 hPa NNW 5 km/h 8 km/h 79% 0.00 mm 0.00 W/m2
05:14 28.0 °C 24.0 °C 1010.5 hPa NNW 5 km/h 8 km/h 79% 0.00 mm 0.00 W/m2
05:19 28.0 °C 24.0 °C 1010.5 hPa North 2 km/h 4 km/h 79% 0.00 mm 0.00 W/m2
05:24 28.0 °C 24.0 °C 1010.5 hPa North 5 km/h 8 km/h 80% 0.00 mm 0.00 W/m2
05:29 27.0 °C 24.0 °C 1010.5 hPa North 5 km/h 8 km/h 80% 0.00 mm 0.00 W/m2
05:34 27.0 °C 24.0 °C 1010.5 hPa NNW 4 km/h 4 km/h 80% 0.00 mm 0.33 W/m2
05:39 27.0 °C 24.0 °C 1010.5 hPa North 6 km/h 8 km/h 80% 0.00 mm 2.96 W/m2
05:44 27.0 °C 24.0 °C 1010.5 hPa North 7 km/h 12 km/h 80% 0.00 mm 5.88 W/m2
05:49 27.0 °C 24.0 °C 1010.5 hPa NNE 8 km/h 8 km/h 80% 0.00 mm 10.71 W/m2
05:54 28.0 °C 24.0 °C 1010.5 hPa North 7 km/h 8 km/h 80% 0.00 mm 16.81 W/m2
05:59 28.0 °C 24.0 °C 1010.5 hPa NNE 7 km/h 8 km/h 80% 0.00 mm 23.64 W/m2
06:04 28.0 °C 24.0 °C 1010.5 hPa NNE 5 km/h 8 km/h 80% 0.00 mm 30.94 W/m2
06:09 28.0 °C 24.0 °C 1010.8 hPa NNE 4 km/h 4 km/h 80% 0.00 mm 39.94 W/m2
06:14 28.0 °C 24.0 °C 1010.8 hPa NNE 4 km/h 4 km/h 80% 0.00 mm 43.79 W/m2
06:19 28.0 °C 24.0 °C 1010.8 hPa NNE 3 km/h 4 km/h 80% 0.00 mm 45.54 W/m2
06:24 28.0 °C 24.0 °C 1010.8 hPa North 3 km/h 4 km/h 80% 0.00 mm 77.20 W/m2
06:29 28.0 °C 24.0 °C 1010.8 hPa NNE 5 km/h 8 km/h 79% 0.00 mm 158.96 W/m2
06:34 28.0 °C 24.0 °C 1010.8 hPa North 7 km/h 8 km/h 79% 0.00 mm 128.08 W/m2
06:39 28.0 °C 24.0 °C 1011.2 hPa North 9 km/h 12 km/h 79% 0.00 mm 194.58 W/m2
06:44 29.0 °C 24.0 °C 1010.8 hPa NW 8 km/h 12 km/h 78% 0.00 mm 217.95 W/m2
06:49 29.0 °C 25.0 °C 1010.8 hPa North 10 km/h 12 km/h 77% 0.00 mm 228.08 W/m2
06:54 29.0 °C 24.0 °C 1011.2 hPa North 11 km/h 12 km/h 78% 0.00 mm 241.05 W/m2
06:59 29.0 °C 24.0 °C 1011.2 hPa NNW 8 km/h 12 km/h 78% 0.00 mm 244.96 W/m2
07:04 29.0 °C 24.0 °C 1011.2 hPa North 10 km/h 12 km/h 78% 0.00 mm 250.42 W/m2
07:09 29.0 °C 24.0 °C 1011.5 hPa NNW 9 km/h 12 km/h 78% 0.00 mm 262.50 W/m2
07:14 29.0 °C 25.0 °C 1011.5 hPa NNE 8 km/h 8 km/h 77% 0.00 mm 272.34 W/m2
07:19 30.0 °C 25.0 °C 1011.5 hPa NNW 5 km/h 8 km/h 75% 0.00 mm 282.96 W/m2
07:24 30.0 °C 25.0 °C 1011.5 hPa North 8 km/h 8 km/h 75% 0.00 mm 289.10 W/m2
07:29 30.0 °C 25.0 °C 1011.5 hPa NNE 8 km/h 8 km/h 75% 0.00 mm 294.04 W/m2
07:34 30.0 °C 25.0 °C 1011.5 hPa NNE 4 km/h 4 km/h 74% 0.00 mm 290.42 W/m2
07:39 31.0 °C 25.0 °C 1011.5 hPa SSE 3 km/h 4 km/h 72% 0.00 mm 314.45 W/m2
07:44 32.0 °C 25.0 °C 1011.9 hPa NE 8 km/h 8 km/h 70% 0.00 mm 328.69 W/m2
07:49 31.0 °C 25.0 °C 1011.5 hPa North 5 km/h 8 km/h 70% 0.00 mm 335.78 W/m2
07:54 31.0 °C 25.0 °C 1011.5 hPa NW 6 km/h 8 km/h 70% 0.00 mm 340.87 W/m2
07:59 31.0 °C 25.0 °C 1011.5 hPa NW 5 km/h 8 km/h 70% 0.00 mm 342.73 W/m2
08:04 32.0 °C 25.0 °C 1011.5 hPa North 1 km/h 4 km/h 69% 0.00 mm 354.70 W/m2
08:09 32.0 °C 25.0 °C 1011.5 hPa SSW 4 km/h 4 km/h 66% 0.00 mm 366.22 W/m2
08:14 33.0 °C 25.0 °C 1011.9 hPa ESE 8 km/h 8 km/h 67% 0.00 mm 375.89 W/m2
08:19 33.0 °C 25.0 °C 1011.5 hPa ENE 6 km/h 12 km/h 66% 0.00 mm 386.82 W/m2
08:24 33.0 °C 25.0 °C 1011.5 hPa North 8 km/h 12 km/h 66% 0.00 mm 393.09 W/m2
08:29 33.0 °C 25.0 °C 1011.5 hPa NNE 8 km/h 12 km/h 66% 0.00 mm 392.62 W/m2
08:34 32.0 °C 25.0 °C 1011.5 hPa North 7 km/h 8 km/h 67% 0.00 mm 389.37 W/m2
08:39 32.0 °C 25.0 °C 1011.5 hPa NNE 10 km/h 12 km/h 65% 0.00 mm 412.56 W/m2
08:44 33.0 °C 25.0 °C 1011.5 hPa ENE 8 km/h 12 km/h 66% 0.00 mm 423.43 W/m2
08:49 33.0 °C 25.0 °C 1011.5 hPa SE 10 km/h 12 km/h 63% 0.00 mm 418.26 W/m2
08:54 34.0 °C 25.0 °C 1011.9 hPa NE 9 km/h 12 km/h 63% 0.00 mm 443.44 W/m2
08:59 34.0 °C 25.0 °C 1011.9 hPa NNE 24 km/h 28 km/h 63% 0.00 mm 458.93 W/m2
09:04 34.0 °C 25.0 °C 1011.5 hPa ENE 13 km/h 16 km/h 62% 0.00 mm 482.00 W/m2
09:09 34.0 °C 25.0 °C 1011.5 hPa ENE 14 km/h 16 km/h 61% 0.00 mm 473.41 W/m2
09:14 34.0 °C 25.0 °C 1011.5 hPa ENE 10 km/h 12 km/h 62% 0.00 mm 466.05 W/m2
09:19 33.0 °C 25.0 °C 1011.5 hPa ENE 10 km/h 12 km/h 63% 0.00 mm 413.17 W/m2
09:24 32.0 °C 25.0 °C 1011.5 hPa ESE 7 km/h 12 km/h 64% 0.00 mm 158.40 W/m2
09:29 32.0 °C 25.0 °C 1011.5 hPa SE 10 km/h 12 km/h 65% 0.00 mm 422.45 W/m2
09:34 33.0 °C 25.0 °C 1011.2 hPa SE 13 km/h 16 km/h 64% 0.00 mm 414.40 W/m2
09:39 33.0 °C 25.0 °C 1011.5 hPa SSE 5 km/h 8 km/h 62% 0.00 mm 388.93 W/m2
09:44 34.0 °C 25.0 °C 1011.2 hPa East 10 km/h 16 km/h 62% 0.00 mm 420.91 W/m2
09:49 34.0 °C 25.0 °C 1011.2 hPa NE 15 km/h 20 km/h 61% 0.00 mm 403.83 W/m2
09:54 34.0 °C 25.0 °C 1011.2 hPa NE 15 km/h 20 km/h 61% 0.00 mm 455.55 W/m2
09:59 34.0 °C 25.0 °C 1011.2 hPa NNE 12 km/h 16 km/h 61% 0.00 mm 496.36 W/m2
10:04 35.0 °C 25.0 °C 1011.2 hPa East 16 km/h 20 km/h 58% 0.00 mm 545.74 W/m2
10:09 35.0 °C 25.0 °C 1011.2 hPa NE 17 km/h 24 km/h 59% 0.00 mm 551.83 W/m2
10:14 34.0 °C 25.0 °C 1011.2 hPa ENE 10 km/h 12 km/h 59% 0.00 mm 532.79 W/m2
10:19 34.0 °C 26.0 °C 1010.8 hPa South 16 km/h 24 km/h 65% 0.00 mm 515.94 W/m2
10:24 33.0 °C 26.0 °C 1010.8 hPa SSW 15 km/h 20 km/h 65% 0.00 mm 513.54 W/m2
10:29 33.0 °C 26.0 °C 1010.8 hPa SSW 9 km/h 12 km/h 64% 0.00 mm 486.58 W/m2
10:34 33.0 °C 26.0 °C 1010.8 hPa South 14 km/h 16 km/h 67% 0.00 mm 386.43 W/m2
10:39 32.0 °C 26.0 °C 1010.8 hPa SSE 16 km/h 20 km/h 70% 0.00 mm 157.25 W/m2
10:44 32.0 °C 26.0 °C 1010.8 hPa SSE 12 km/h 16 km/h 71% 0.00 mm 348.58 W/m2
10:49 32.0 °C 26.0 °C 1010.8 hPa SW 12 km/h 16 km/h 71% 0.00 mm 474.88 W/m2
10:54 32.0 °C 26.0 °C 1010.8 hPa SSW 17 km/h 20 km/h 72% 0.00 mm 499.57 W/m2
10:59 32.0 °C 26.0 °C 1010.8 hPa South 14 km/h 16 km/h 72% 0.00 mm 538.89 W/m2
11:04 33.0 °C 26.0 °C 1010.8 hPa SSW 10 km/h 16 km/h 70% 0.00 mm 541.02 W/m2
11:09 33.0 °C 26.0 °C 1010.8 hPa South 15 km/h 20 km/h 69% 0.00 mm 527.02 W/m2
11:14 33.0 °C 26.0 °C 1010.8 hPa SSW 9 km/h 16 km/h 68% 0.00 mm 512.19 W/m2
11:19 34.0 °C 26.0 °C 1010.8 hPa SW 13 km/h 16 km/h 66% 0.00 mm 546.20 W/m2
11:24 34.0 °C 26.0 °C 1010.5 hPa SSW 12 km/h 16 km/h 67% 0.00 mm 535.93 W/m2
11:29 33.0 °C 26.0 °C 1010.5 hPa SSW 18 km/h 20 km/h 67% 0.00 mm 506.64 W/m2
11:34 34.0 °C 26.0 °C 1010.5 hPa SSE 13 km/h 16 km/h 67% 0.00 mm 501.52 W/m2
11:39 34.0 °C 26.0 °C 1010.5 hPa SSW 12 km/h 16 km/h 65% 0.00 mm 488.19 W/m2
11:44 34.0 °C 26.0 °C 1010.5 hPa WSW 8 km/h 12 km/h 65% 0.00 mm 467.22 W/m2
11:49 34.0 °C 26.0 °C 1010.5 hPa SSW 8 km/h 12 km/h 64% 0.00 mm 458.76 W/m2
11:54 34.0 °C 26.0 °C 1010.5 hPa South 13 km/h 16 km/h 64% 0.00 mm 373.39 W/m2
11:59 33.0 °C 26.0 °C 1010.2 hPa South 11 km/h 12 km/h 65% 0.00 mm 214.48 W/m2
12:04 33.0 °C 26.0 °C 1010.2 hPa SW 8 km/h 12 km/h 65% 0.00 mm 260.06 W/m2
12:09 33.0 °C 26.0 °C 1010.2 hPa NW 14 km/h 16 km/h 65% 0.00 mm 506.54 W/m2
12:14 34.0 °C 26.0 °C 1010.2 hPa NW 14 km/h 16 km/h 63% 0.00 mm 510.53 W/m2
12:19 34.0 °C 26.0 °C 1009.8 hPa SW 10 km/h 12 km/h 64% 0.00 mm 509.50 W/m2
12:24 34.0 °C 26.0 °C 1009.8 hPa SW 9 km/h 12 km/h 64% 0.00 mm 484.57 W/m2
12:29 34.0 °C 26.0 °C 1009.8 hPa South 15 km/h 16 km/h 63% 0.00 mm 510.75 W/m2
12:34 34.0 °C 26.0 °C 1009.8 hPa SSW 12 km/h 16 km/h 63% 0.00 mm 503.19 W/m2
12:39 35.0 °C 26.0 °C 1009.5 hPa WNW 13 km/h 20 km/h 63% 0.00 mm 503.97 W/m2
12:44 35.0 °C 26.0 °C 1009.5 hPa South 12 km/h 16 km/h 62% 0.00 mm 504.49 W/m2
12:49 35.0 °C 26.0 °C 1009.1 hPa SW 12 km/h 16 km/h 62% 0.00 mm 547.11 W/m2
12:54 35.0 °C 26.0 °C 1009.1 hPa SW 12 km/h 16 km/h 61% 0.00 mm 540.16 W/m2
12:59 35.0 °C 26.0 °C 1009.1 hPa SSW 9 km/h 12 km/h 60% 0.00 mm 518.02 W/m2
13:04 35.0 °C 26.0 °C 1009.1 hPa WSW 13 km/h 16 km/h 60% 0.00 mm 490.20 W/m2
13:09 35.0 °C 26.0 °C 1009.1 hPa South 9 km/h 12 km/h 60% 0.00 mm 499.91 W/m2
13:14 35.0 °C 26.0 °C 1008.8 hPa West 16 km/h 16 km/h 61% 0.00 mm 516.38 W/m2
13:19 35.0 °C 26.0 °C 1008.8 hPa West 9 km/h 12 km/h 61% 0.00 mm 504.53 W/m2
13:24 35.0 °C 26.0 °C 1008.8 hPa WSW 12 km/h 16 km/h 61% 0.00 mm 511.95 W/m2
13:29 35.0 °C 26.0 °C 1008.8 hPa South 12 km/h 20 km/h 62% 0.00 mm 509.60 W/m2
13:34 34.0 °C 26.0 °C 1008.8 hPa South 13 km/h 16 km/h 63% 0.00 mm 428.29 W/m2
13:39 33.0 °C 26.0 °C 1008.8 hPa South 10 km/h 12 km/h 64% 0.00 mm 450.44 W/m2
13:44 34.0 °C 26.0 °C 1008.5 hPa South 10 km/h 12 km/h 63% 0.00 mm 512.27 W/m2
13:49 35.0 °C 26.0 °C 1008.5 hPa South 10 km/h 12 km/h 62% 0.00 mm 548.60 W/m2
13:54 36.0 °C 26.0 °C 1008.1 hPa SW 8 km/h 12 km/h 60% 0.00 mm 561.25 W/m2
13:59 35.0 °C 26.0 °C 1008.5 hPa SW 6 km/h 8 km/h 60% 0.00 mm 208.41 W/m2
14:04 35.0 °C 26.0 °C 1008.5 hPa NW 18 km/h 20 km/h 64% 0.00 mm 129.77 W/m2
14:09 33.0 °C 25.0 °C 1008.5 hPa WNW 16 km/h 16 km/h 66% 0.00 mm 68.91 W/m2
14:14 32.0 °C 26.0 °C 1008.5 hPa WNW 12 km/h 16 km/h 74% 7.11 mm 57.98 W/m2
14:19 31.0 °C 26.0 °C 1008.5 hPa NNW 17 km/h 20 km/h 76% 14.48 mm 45.84 W/m2
14:24 30.0 °C 26.0 °C 1008.5 hPa North 5 km/h 8 km/h 80% 16.26 mm 43.50 W/m2
14:29 29.0 °C 26.0 °C 1008.5 hPa NNE 5 km/h 8 km/h 81% 10.67 mm 48.99 W/m2
14:34 29.0 °C 25.0 °C 1008.5 hPa WSW 5 km/h 8 km/h 80% 5.33 mm 53.69 W/m2
14:39 29.0 °C 26.0 °C 1008.5 hPa West 5 km/h 8 km/h 82% 1.78 mm 74.60 W/m2
14:44 29.0 °C 26.0 °C 1008.1 hPa Calm     84% 0.00 mm 91.33 W/m2
14:49 30.0 °C 26.0 °C 1008.1 hPa South 3 km/h 4 km/h 84% 0.00 mm 103.86 W/m2
14:54 30.0 °C 26.0 °C 1008.1 hPa SSW 6 km/h 8 km/h 80% 0.00 mm 125.15 W/m2
14:59 31.0 °C 26.0 °C 1008.1 hPa SSW 5 km/h 8 km/h 78% 0.00 mm 134.93 W/m2
15:04 32.0 °C 27.0 °C 1008.1 hPa West 4 km/h 4 km/h 76% 0.00 mm 132.63 W/m2
15:09 32.0 °C 26.0 °C 1007.8 hPa West 4 km/h 8 km/h 73% 0.00 mm 142.61 W/m2
15:14 32.0 °C 26.0 °C 1007.8 hPa SSE 5 km/h 8 km/h 72% 0.00 mm 151.47 W/m2
15:19 33.0 °C 27.0 °C 1007.8 hPa South 5 km/h 8 km/h 71% 0.00 mm 179.71 W/m2
15:24 33.0 °C 26.0 °C 1007.8 hPa WNW 15 km/h 16 km/h 70% 0.00 mm 391.32 W/m2
15:29 33.0 °C 26.0 °C 1007.8 hPa WNW 10 km/h 12 km/h 69% 0.00 mm 391.91 W/m2
15:34 33.0 °C 26.0 °C 1007.8 hPa SSE 5 km/h 8 km/h 67% 0.00 mm 277.48 W/m2
15:39 34.0 °C 26.0 °C 1007.8 hPa West 6 km/h 8 km/h 66% 0.00 mm 364.04 W/m2
15:44 35.0 °C 27.0 °C 1007.8 hPa South 5 km/h 8 km/h 66% 0.00 mm 416.94 W/m2
15:49 35.0 °C 27.0 °C 1007.5 hPa SSW 6 km/h 8 km/h 64% 0.00 mm 432.38 W/m2
15:54 35.0 °C 27.0 °C 1007.5 hPa SW 10 km/h 12 km/h 64% 0.00 mm 425.97 W/m2
15:59 35.0 °C 27.0 °C 1007.5 hPa South 11 km/h 12 km/h 64% 0.00 mm 427.49 W/m2
16:04 35.0 °C 27.0 °C 1007.8 hPa South 11 km/h 12 km/h 65% 0.00 mm 423.82 W/m2
16:09 34.0 °C 26.0 °C 1007.5 hPa South 14 km/h 16 km/h 65% 0.00 mm 404.44 W/m2
16:14 34.0 °C 26.0 °C 1007.5 hPa SSW 5 km/h 8 km/h 65% 0.00 mm 363.77 W/m2
16:19 34.0 °C 26.0 °C 1007.5 hPa SSW 9 km/h 12 km/h 65% 0.00 mm 347.55 W/m2
16:24 34.0 °C 26.0 °C 1007.5 hPa WNW 10 km/h 12 km/h 63% 0.00 mm 349.56 W/m2
16:29 34.0 °C 26.0 °C 1007.5 hPa WSW 8 km/h 12 km/h 63% 0.00 mm 344.18 W/m2
16:34 34.0 °C 26.0 °C 1007.8 hPa NW 12 km/h 20 km/h 66% 0.00 mm 314.79 W/m2
16:39 34.0 °C 26.0 °C 1007.8 hPa NW 12 km/h 16 km/h 67% 0.00 mm 309.51 W/m2
16:44 34.0 °C 26.0 °C 1007.8 hPa WNW 10 km/h 12 km/h 65% 0.00 mm 299.21 W/m2
16:49 34.0 °C 26.0 °C 1007.8 hPa WNW 6 km/h 8 km/h 65% 0.00 mm 114.04 W/m2
16:54 33.0 °C 26.0 °C 1007.8 hPa SW 5 km/h 8 km/h 64% 0.00 mm 100.48 W/m2
16:59 33.0 °C 26.0 °C 1008.1 hPa West 11 km/h 12 km/h 65% 0.00 mm 177.28 W/m2
17:04 33.0 °C 26.0 °C 1007.8 hPa SW 3 km/h 8 km/h 65% 0.00 mm 127.74 W/m2
17:09 33.0 °C 26.0 °C 1008.1 hPa WNW 8 km/h 12 km/h 66% 0.00 mm 115.28 W/m2
17:14 33.0 °C 25.0 °C 1008.1 hPa NNW 10 km/h 12 km/h 66% 0.00 mm 120.28 W/m2
17:19 32.0 °C 26.0 °C 1008.1 hPa North 12 km/h 12 km/h 67% 0.00 mm 57.90 W/m2
17:24 33.0 °C 24.0 °C 1008.1 hPa NNE 10 km/h 12 km/h 60% 0.00 mm 44.17 W/m2
17:29 33.0 °C 23.0 °C 1008.1 hPa East 9 km/h 12 km/h 58% 0.00 mm 37.10 W/m2
17:34 33.0 °C 23.0 °C 1008.5 hPa SE 8 km/h 12 km/h 58% 0.00 mm 30.68 W/m2
17:39 33.0 °C 24.0 °C 1008.5 hPa East 8 km/h 8 km/h 59% 0.00 mm 26.77 W/m2
17:44 33.0 °C 24.0 °C 1008.1 hPa ESE 4 km/h 8 km/h 60% 0.00 mm 23.20 W/m2
17:49 33.0 °C 24.0 °C 1008.5 hPa NNE 11 km/h 16 km/h 62% 0.00 mm 20.31 W/m2
17:54 32.0 °C 24.0 °C 1008.5 hPa NNE 14 km/h 16 km/h 63% 0.00 mm 17.04 W/m2
17:59 32.0 °C 24.0 °C 1008.5 hPa NE 12 km/h 16 km/h 64% 0.00 mm 12.42 W/m2
18:04 32.0 °C 24.0 °C 1008.8 hPa NNE 10 km/h 16 km/h 64% 0.00 mm 9.00 W/m2
18:09 31.0 °C 24.0 °C 1008.8 hPa NNE 14 km/h 16 km/h 65% 0.00 mm 6.50 W/m2
18:14 31.0 °C 24.0 °C 1008.5 hPa NNE 9 km/h 12 km/h 65% 0.00 mm 3.10 W/m2
18:19 31.0 °C 24.0 °C 1008.5 hPa NNE 13 km/h 16 km/h 66% 0.00 mm 0.29 W/m2
18:24 31.0 °C 24.0 °C 1008.8 hPa NNE 8 km/h 8 km/h 66% 0.00 mm 0.00 W/m2
18:29 31.0 °C 24.0 °C 1008.8 hPa NNE 14 km/h 16 km/h 66% 0.00 mm 0.00 W/m2
18:34 31.0 °C 24.0 °C 1008.8 hPa NNE 9 km/h 12 km/h 66% 0.00 mm 0.00 W/m2
18:39 31.0 °C 24.0 °C 1008.8 hPa North 10 km/h 12 km/h 65% 0.00 mm 0.00 W/m2
18:44 31.0 °C 24.0 °C 1008.8 hPa NNE 7 km/h 8 km/h 65% 0.00 mm 0.00 W/m2
18:49 31.0 °C 24.0 °C 1008.8 hPa NNE 11 km/h 12 km/h 65% 0.00 mm 0.00 W/m2
18:54 31.0 °C 23.0 °C 1008.8 hPa NNE 9 km/h 16 km/h 64% 0.00 mm 0.00 W/m2
18:59 31.0 °C 23.0 °C 1009.1 hPa NNE 5 km/h 8 km/h 65% 0.00 mm 0.00 W/m2
19:04 31.0 °C 23.0 °C 1009.1 hPa NNE 7 km/h 12 km/h 65% 0.00 mm 0.00 W/m2
19:09 31.0 °C 23.0 °C 1009.1 hPa NE 5 km/h 8 km/h 65% 0.00 mm 0.00 W/m2
19:14 31.0 °C 23.0 °C 1009.1 hPa Calm   4 km/h 65% 0.00 mm 0.00 W/m2
19:19 31.0 °C 23.0 °C 1009.5 hPa Calm     66% 0.00 mm 0.00 W/m2
19:24 31.0 °C 23.0 °C 1009.5 hPa ENE 5 km/h 8 km/h 66% 0.00 mm 0.00 W/m2
19:29 30.0 °C 23.0 °C 1009.5 hPa Calm   4 km/h 66% 0.00 mm 0.00 W/m2
19:34 30.0 °C 23.0 °C 1009.5 hPa NNE 3 km/h 4 km/h 66% 0.00 mm 0.00 W/m2
19:39 30.0 °C 23.0 °C 1009.5 hPa ENE 1 km/h 4 km/h 66% 0.00 mm 0.00 W/m2
19:44 30.0 °C 23.0 °C 1009.5 hPa East 5 km/h 8 km/h 66% 0.00 mm 0.00 W/m2
19:49 30.0 °C 23.0 °C 1009.5 hPa Calm   4 km/h 66% 0.00 mm 0.00 W/m2
19:54 30.0 °C 23.0 °C 1009.5 hPa SSE 2 km/h 4 km/h 66% 0.00 mm 0.00 W/m2
19:59 30.0 °C 23.0 °C 1009.5 hPa ESE 4 km/h 8 km/h 66% 0.00 mm 0.00 W/m2
20:04 30.0 °C 23.0 °C 1009.5 hPa ESE 3 km/h 8 km/h 67% 0.00 mm 0.00 W/m2
20:09 30.0 °C 23.0 °C 1009.5 hPa East 6 km/h 8 km/h 67% 0.00 mm 0.00 W/m2
20:14 30.0 °C 23.0 °C 1009.8 hPa ESE 4 km/h 4 km/h 67% 0.00 mm 0.00 W/m2
20:19 30.0 °C 23.0 °C 1009.8 hPa East 4 km/h 8 km/h 67% 0.00 mm 0.00 W/m2
20:24 30.0 °C 23.0 °C 1009.8 hPa ESE 9 km/h 12 km/h 67% 0.00 mm 0.00 W/m2
20:29 30.0 °C 23.0 °C 1009.8 hPa SE 9 km/h 12 km/h 67% 0.00 mm 0.00 W/m2
20:34 30.0 °C 23.0 °C 1010.2 hPa ESE 4 km/h 8 km/h 67% 0.00 mm 0.00 W/m2
20:39 30.0 °C 23.0 °C 1010.2 hPa ENE 5 km/h 8 km/h 67% 0.00 mm 0.00 W/m2
20:44 30.0 °C 23.0 °C 1010.2 hPa ESE 10 km/h 16 km/h 67% 0.00 mm 0.00 W/m2
20:49 30.0 °C 23.0 °C 1010.2 hPa East 6 km/h 12 km/h 67% 0.00 mm 0.00 W/m2
20:54 30.0 °C 23.0 °C 1010.2 hPa ENE 4 km/h 8 km/h 67% 0.00 mm 0.00 W/m2
20:59 30.0 °C 23.0 °C 1010.2 hPa SE 6 km/h 8 km/h 67% 0.00 mm 0.00 W/m2
21:04 30.0 °C 23.0 °C 1010.2 hPa ESE 5 km/h 8 km/h 66% 0.00 mm 0.00 W/m2
21:09 30.0 °C 23.0 °C 1010.2 hPa ESE 8 km/h 8 km/h 66% 0.00 mm 0.00 W/m2
21:14 30.0 °C 23.0 °C 1010.2 hPa North 4 km/h 8 km/h 67% 0.00 mm 0.00 W/m2
21:19 30.0 °C 23.0 °C 1010.2 hPa East 9 km/h 12 km/h 67% 0.00 mm 0.00 W/m2
21:24 30.0 °C 23.0 °C 1010.2 hPa East 5 km/h 8 km/h 66% 0.00 mm 0.00 W/m2
21:29 30.0 °C 23.0 °C 1010.5 hPa East 8 km/h 12 km/h 67% 0.00 mm 0.00 W/m2
21:34 30.0 °C 23.0 °C 1010.5 hPa SE 6 km/h 8 km/h 66% 0.00 mm 0.00 W/m2
21:39 30.0 °C 23.0 °C 1010.5 hPa East 8 km/h 12 km/h 66% 0.00 mm 0.00 W/m2
21:44 30.0 °C 23.0 °C 1010.5 hPa NE 8 km/h 12 km/h 66% 0.00 mm 0.00 W/m2
21:49 30.0 °C 23.0 °C 1010.5 hPa SE 5 km/h 8 km/h 66% 0.00 mm 0.00 W/m2
21:54 30.0 °C 23.0 °C 1010.5 hPa Calm     67% 0.00 mm 0.00 W/m2
21:59 30.0 °C 23.0 °C 1010.5 hPa ESE 3 km/h 4 km/h 67% 0.00 mm 0.00 W/m2
22:04 30.0 °C 23.0 °C 1010.5 hPa ESE 1 km/h 4 km/h 67% 0.00 mm 0.00 W/m2
22:09 29.0 °C 23.0 °C 1010.5 hPa ESE 5 km/h 8 km/h 67% 0.00 mm 0.00 W/m2
22:14 29.0 °C 23.0 °C 1010.5 hPa SE 4 km/h 4 km/h 67% 0.00 mm 0.00 W/m2
22:19 29.0 °C 23.0 °C 1010.5 hPa ESE 4 km/h 8 km/h 67% 0.00 mm 0.00 W/m2
22:24 29.0 °C 23.0 °C 1010.5 hPa ESE 5 km/h 12 km/h 67% 0.00 mm 0.00 W/m2
22:29 30.0 °C 23.0 °C 1010.5 hPa East 3 km/h 4 km/h 67% 0.00 mm 0.00 W/m2
22:34 29.0 °C 23.0 °C 1010.5 hPa East 2 km/h 4 km/h 67% 0.00 mm 0.00 W/m2
22:39 29.0 °C 23.0 °C 1010.5 hPa SE 4 km/h 8 km/h 67% 0.00 mm 0.00 W/m2
22:44 29.0 °C 23.0 °C 1010.5 hPa ESE 8 km/h 12 km/h 67% 0.00 mm 0.00 W/m2
22:49 29.0 °C 23.0 °C 1010.8 hPa East 6 km/h 8 km/h 67% 0.00 mm 0.00 W/m2
22:54 29.0 °C 23.0 °C 1010.8 hPa ESE 6 km/h 8 km/h 67% 0.00 mm 0.00 W/m2
22:59 29.0 °C 23.0 °C 1010.5 hPa ESE 4 km/h 4 km/h 68% 0.00 mm 0.00 W/m2
23:04 29.0 °C 23.0 °C 1010.5 hPa SE 5 km/h 8 km/h 68% 0.00 mm 0.00 W/m2
23:09 29.0 °C 23.0 °C 1010.5 hPa ESE 7 km/h 12 km/h 68% 0.00 mm 0.00 W/m2
23:14 29.0 °C 23.0 °C 1010.5 hPa East 5 km/h 8 km/h 68% 0.00 mm 0.00 W/m2
23:19 29.0 °C 23.0 °C 1010.5 hPa ESE 5 km/h 8 km/h 68% 0.00 mm 0.00 W/m2
23:24 29.0 °C 23.0 °C 1010.5 hPa SE 5 km/h 8 km/h 69% 0.00 mm 0.00 W/m2
23:29 29.0 °C 23.0 °C 1010.5 hPa ESE 6 km/h 8 km/h 69% 0.00 mm 0.00 W/m2
23:34 29.0 °C 23.0 °C 1010.2 hPa SE 3 km/h 4 km/h 69% 0.00 mm 0.00 W/m2
23:39 29.0 °C 23.0 °C 1010.2 hPa Calm     69% 0.00 mm 0.00 W/m2
23:44 29.0 °C 23.0 °C 1009.8 hPa NNE 4 km/h 4 km/h 69% 0.00 mm 0.00 W/m2
23:49 29.0 °C 23.0 °C 1010.2 hPa Calm     70% 0.00 mm 0.00 W/m2
23:54 29.0 °C 23.0 °C 1010.2 hPa Calm     71% 0.00 mm 0.00 W/m2
23:59 29.0 °C 23.0 °C 1009.8 hPa Calm     71% 0.00 mm 0.00 W/m2
PIMOHWEATHER Philippines
Compliments of Weather Underground - 2 mb